About Lemur-2 Sierrini
Group: 3 satellites
Description loading...
Live Position
Loading 3D Globe...
Upcoming Passes
Altitude History
Altitude vs Time
uPlot chart will show altitude changes over time
Two-Line Element Set
1 60579U 24149DR 26063.17096647 .00019276 00000-0 12374-2 0 9998
2 60579 97.6891 145.4774 0006136 166.6878 193.4513 15.08495622 84616
Epoch: Mar 4, 2026 •
Age: 11 hours
Current Status
Altitude 553.2 km
Velocity 7.59 km/s
Sub-Earth Point 82.25°N,
81.12°E
Launch Date Aug 16, 2024
Age 1.5 years
Type other
Technical Details
Classification Payload
Mass 7.60 kg
Dry Mass 7.60 kg
Total Mass 7.60 kg
Length 0.30 m
Diameter 0.10 m
Span 1.00 m
Shape Box+ 2 pan
Manufacturer SPIREG
Bus Type Cubesat 3U
Phase Status In Orbit
Owner/State SPIREL/MYRI/L
Large Constellations
Loading constellations...